SV2TW-2 Weather Reports


Display with metric or nautical units.
time (UTC)temp
F
wind
direction
speed
MPH
gust
MPH
rain 1hr
in
rain 24hr
in
rain mn
in
humidity
%
barometer
mb
20260508002204 53 180 1.0 0.0 0.00 0.00 0.00 85 1010.2
20260508001704 53 225 1.0 0.0 0.00 0.00 0.00 84 1010.2
20260508001204 53 225 1.0 0.0 0.00 0.00 0.00 84 1010.3
20260508000704 53 225 1.0 0.0 0.00 0.00 0.00 83 1010.3
20260508000205 52 225 1.0 0.0 0.00 0.00 0.00 82 1010.3
20260507235704 53 225 1.0 0.0 0.00 0.00 0.00 82 1010.6
20260507235204 53 225 1.0 0.0 0.00 0.00 0.00 81 1010.6
20260507234704 53 225 1.0 0.0 0.00 0.00 0.00 81 1010.4
20260507233704 54 225 2.0 0.0 0.00 0.00 0.00 82 1010.8
20260507233203 53 180 1.0 0.0 0.00 0.00 0.00 81 1010.6
20260507232204 53 225 0.0 0.0 0.00 0.00 0.00 79 1010.9
20260507231704 53 225 1.0 0.0 0.00 0.00 0.00 79 1010.8
20260507231204 54 225 1.0 0.0 0.00 0.00 0.00 79 1011.0
20260507230704 54 225 0.0 0.0 0.00 0.00 0.00 79 1011.0
20260507230204 54 225 1.0 0.0 0.00 0.00 0.00 79 1010.9
20260507225704 54 180 0.0 0.0 0.00 0.00 0.00 80 1011.1
20260507225204 54 225 1.0 0.0 0.00 0.00 0.00 79 1011.0
20260507224704 54 225 0.0 0.0 0.00 0.00 0.00 78 1011.1
20260507224204 54 248 2.0 0.0 0.00 0.00 0.00 78 1011.2
20260507223704 55 225 0.0 0.0 0.00 0.00 0.00 74 1011.2
20260507223205 55 225 0.0 0.0 0.00 0.00 0.00 73 1011.1
20260507222704 55 225 1.0 0.0 0.00 0.00 0.00 73 1011.1
20260507222204 56 225 1.0 0.0 0.00 0.00 0.00 73 1011.1
20260507221704 56 225 1.0 0.0 0.00 0.00 0.00 73 1011.0
20260507221204 56 270 2.0 0.0 0.00 0.00 0.00 72 1011.1
20260507220704 56 225 2.0 0.0 0.00 0.00 0.00 72 1011.1
20260507215704 56 0 1.0 0.0 0.00 0.00 0.00 72 1011.0
20260507215203 56 225 1.0 0.0 0.00 0.00 0.00 72 1011.1
20260507214704 56 225 2.0 0.0 0.00 0.00 0.00 73 1011.0
20260507214204 56 225 2.0 0.0 0.00 0.00 0.00 74 1011.0
20260507213704 56 180 2.0 0.0 0.00 0.00 0.00 74 1011.1
20260507212704 56 225 2.0 0.0 0.00 0.00 0.00 73 1011.0
20260507212204 56 225 0.0 0.0 0.00 0.00 0.00 73 1011.0
20260507211704 57 225 2.0 0.0 0.00 0.00 0.00 73 1011.0
20260507211204 57 225 2.0 0.0 0.00 0.00 0.00 74 1010.9
20260507210704 56 203 0.0 0.0 0.00 0.00 0.00 77 1010.7
20260507210204 56 270 1.0 0.0 0.00 0.00 0.00 77 1010.8
20260507204704 56 270 2.0 0.0 0.00 0.00 0.00 77 1010.7
20260507204204 56 225 0.0 0.0 0.00 0.00 0.00 77 1010.8
20260507203703 56 225 0.0 0.0 0.00 0.00 0.00 77 1010.8
20260507203204 56 180 0.0 0.0 0.00 0.00 0.00 77 1010.8
20260507202704 56 225 1.0 0.0 0.00 0.00 0.00 77 1010.9
20260507202204 56 180 2.0 0.0 0.00 0.00 0.00 77 1010.8
20260507201704 56 225 1.0 0.0 0.00 0.00 0.00 77 1010.9
20260507201204 56 225 0.0 0.0 0.00 0.00 0.00 78 1010.8
20260507200704 56 225 0.0 0.0 0.00 0.00 0.00 77 1010.9
20260507200204 56 225 0.0 0.0 0.00 0.00 0.00 77 1010.9
20260507195703 56 225 0.0 0.0 0.00 0.00 0.00 77 1011.0
20260507195204 57 270 1.0 0.0 0.00 0.00 0.00 78 1011.0
20260507194704 57 270 2.0 0.0 0.00 0.00 0.00 79 1010.9
20260507193704 57 225 2.0 0.0 0.00 0.00 0.00 80 1011.0
20260507193204 57 45 2.0 0.0 0.00 0.00 0.00 80 1010.9
20260507192704 57 180 2.0 0.0 0.00 0.00 0.00 80 1010.9
20260507192204 57 270 2.0 0.0 0.00 0.00 0.00 79 1011.0
20260507191703 58 180 0.0 0.0 0.00 0.00 0.00 78 1010.9
20260507191204 58 270 2.0 0.0 0.00 0.00 0.00 76 1010.9
20260507190204 59 135 1.0 0.0 0.00 0.00 0.00 75 1011.0
20260507185704 59 225 2.0 0.0 0.00 0.00 0.00 75 1010.8
20260507185204 59 135 2.0 0.0 0.00 0.00 0.00 75 1010.8
20260507184704 60 45 0.0 0.0 0.00 0.00 0.00 76 1010.8
20260507184204 60 225 1.0 0.0 0.00 0.00 0.00 77 1011.0
20260507183704 60 270 2.0 0.0 0.00 0.00 0.00 80 1010.8
20260507183204 59 225 4.0 0.0 0.00 0.00 0.00 81 1010.9
20260507182704 59 270 1.0 0.0 0.00 0.00 0.00 81 1010.8
20260507182204 59 270 2.0 0.0 0.00 0.00 0.00 80 1010.8
20260507181704 59 158 1.0 0.0 0.00 0.00 0.00 80 1010.6
20260507181204 60 315 2.0 0.0 0.00 0.00 0.00 80 1010.3
20260507180704 60 0.0 0.0 0.00 0.00 0.00 78
20260507180204 60 180 0.0 0.0 0.00 0.00 0.00 78 1010.2
20260507175704 61 135 1.0 0.0 0.00 0.00 0.00 78 1010.2
20260507175204 61 135 2.0 0.0 0.00 0.00 0.00 78 1010.2
20260507174204 61 180 3.0 0.0 0.00 0.00 0.00 78 1010.1
20260507173204 61 45 2.0 0.0 0.00 0.00 0.00 77 1010.0
20260507172704 62 135 2.0 0.0 0.00 0.00 0.00 76 1010.3
20260507171704 62 270 0.0 0.0 0.00 0.00 0.00 76 1010.4
20260507171204 62 270 1.0 0.0 0.00 0.00 0.00 75 1010.8
20260507170704 62 180 0.0 0.0 0.00 0.00 0.00 75 1010.7
20260507170204 62 225 1.0 0.0 0.00 0.00 0.00 75 1010.6
20260507165204 63 270 0.0 0.0 0.00 0.00 0.00 73 1010.6
20260507164704 63 0 1.0 0.0 0.00 0.00 0.00 72 1010.6
20260507164204 63 225 0.0 0.0 0.00 0.00 0.00 72 1010.6
20260507163704 63 180 1.0 0.0 0.00 0.00 0.00 71 1010.6
20260507163204 63 180 1.0 0.0 0.00 0.00 0.00 72 1010.4
20260507162704 63 45 2.0 0.0 0.00 0.00 0.00 72 1010.6
20260507162204 64 338 2.0 0.0 0.00 0.00 0.00 68 1010.4
20260507161704 64 45 2.0 0.0 0.00 0.00 0.00 68 1010.8
20260507161204 64 270 2.0 0.0 0.00 0.00 0.00 68 1010.6
20260507160204 64 90 0.0 0.0 0.00 0.00 0.00 70 1010.6
20260507155704 64 90 1.0 0.0 0.00 0.00 0.00 70 1010.6
20260507155204 64 270 0.0 0.0 0.00 0.00 0.00 69 1010.9
20260507154703 64 45 2.0 0.0 0.00 0.00 0.00 68 1010.9
20260507154204 64 135 2.0 0.0 0.00 0.00 0.00 67 1010.7
20260507153705 64 225 3.0 0.0 0.00 0.00 0.00 68 1011.0
20260507153204 64 135 4.0 0.0 0.00 0.00 0.00 68 1011.0
20260507152704 64 90 1.0 0.0 0.00 0.00 0.00 67 1010.9
20260507151704 65 135 2.0 0.0 0.00 0.00 0.00 65 1010.9
20260507151204 65 225 0.0 0.0 0.00 0.00 0.00 64 1011.1
20260507150704 66 90 2.0 0.0 0.00 0.00 0.00 64 1011.1
20260507150203 67 90 1.0 0.0 0.00 0.00 0.00 64 1011.2
20260507145704 67 135 3.0 0.0 0.00 0.00 0.00 63 1010.9
20260507145204 67 135 2.0 0.0 0.00 0.00 0.00 62 1010.8
20260507144704 67 158 2.0 0.0 0.00 0.00 0.00 61 1010.8
20260507144204 67 90 2.0 0.0 0.00 0.00 0.00 61 1010.9
20260507143704 68 135 1.0 0.0 0.00 0.00 0.00 61 1010.9
20260507143204 67 180 1.0 0.0 0.00 0.00 0.00 61 1011.0
20260507142704 67 180 1.0 0.0 0.00 0.00 0.00 62 1011.0
20260507141704 65 45 2.0 0.0 0.00 0.00 0.00 63 1010.6
20260507141204 65 90 3.0 0.0 0.00 0.00 0.00 63 1010.8
20260507140204 66 45 4.0 0.0 0.00 0.00 0.00 62 1010.8
20260507135704 67 45 4.0 0.0 0.00 0.00 0.00 64 1010.9
20260507135204 66 135 3.0 0.0 0.00 0.00 0.00 71 1010.8
20260507134704 65 180 1.0 0.0 0.00 0.00 0.00 72 1010.7
20260507133704 63 135 2.0 0.0 0.00 0.00 0.00 77 1010.8
20260507133204 63 135 2.0 0.0 0.00 0.00 0.00 77 1010.9
20260507132704 62 225 2.0 0.0 0.00 0.00 0.00 77 1010.9
20260507132204 62 135 2.0 0.0 0.00 0.00 0.00 77 1011.1
20260507131704 63 180 2.0 0.0 0.00 0.00 0.00 78 1011.1
20260507131205 63 68 3.0 0.0 0.00 0.00 0.00 77 1011.0
20260507130704 63 135 2.0 0.0 0.00 0.00 0.00 78 1011.3
20260507130204 63 45 1.0 0.0 0.00 0.00 0.00 78 1011.3
20260507125704 63 45 1.0 0.0 0.00 0.00 0.00 78 1011.4
20260507125204 64 0 3.0 0.0 0.00 0.00 0.00 76 1011.5
20260507124704 64 45 2.0 0.0 0.00 0.00 0.00 77 1011.7
20260507124203 63 90 2.0 0.0 0.00 0.00 0.00 81 1011.9
20260507123704 62 135 2.0 0.0 0.00 0.00 0.00 82 1012.0
20260507123204 61 270 1.0 0.0 0.00 0.00 0.00 82 1012.1
20260507122705 61 0 1.0 0.0 0.00 0.00 0.00 81 1012.1
20260507122204 61 315 4.0 0.0 0.00 0.00 0.00 82 1012.2
20260507121204 61 270 2.0 0.0 0.00 0.00 0.00 82 1012.3
20260507120703 61 315 2.0 0.0 0.00 0.00 0.00 81 1012.3
20260507120204 61 0 2.0 0.0 0.00 0.00 0.00 81 1012.4
20260507115704 61 0 2.0 0.0 0.00 0.00 0.00 80 1012.6
20260507115204 61 315 2.0 0.0 0.00 0.00 0.00 80 1012.6
20260507114704 61 315 3.0 0.0 0.00 0.00 0.00 79 1012.8
20260507114204 62 270 2.0 0.0 0.00 0.00 0.00 78 1012.9
20260507113704 62 270 2.0 0.0 0.00 0.00 0.00 77 1012.9
20260507113204 62 270 2.0 0.0 0.00 0.00 0.00 76 1012.9
20260507112704 63 270 2.0 0.0 0.00 0.00 0.00 75 1012.8
20260507112204 63 270 1.0 0.0 0.00 0.00 0.00 75 1012.8
20260507111704 63 315 1.0 0.0 0.00 0.00 0.00 74 1012.5
20260507111204 64 315 1.0 0.0 0.00 0.00 0.00 70 1012.8
20260507110204 65 270 3.0 0.0 0.00 0.00 0.00 65 1012.5
20260507105704 65 180 2.0 0.0 0.00 0.00 0.00 65 1012.9
20260507105204 65 315 3.0 0.0 0.00 0.00 0.00 67 1012.6
20260507104704 65 0 3.0 0.0 0.00 0.00 0.00 68 1012.4
20260507104204 65 315 3.0 0.0 0.00 0.00 0.00 67 1012.8
20260507103704 66 315 2.0 0.0 0.00 0.00 0.00 68 1012.5
20260507103204 65 315 3.0 0.0 0.00 0.00 0.00 67 1012.5
20260507102703 65 315 4.0 0.0 0.00 0.00 0.00 65 1012.5
20260507102204 65 315 6.0 0.0 0.00 0.00 0.00 64 1012.5
20260507101704 65 270 2.0 0.0 0.00 0.00 0.00 65 1012.4
20260507101204 65 315 5.0 0.0 0.00 0.00 0.00 65 1012.4
20260507100704 66 0 4.0 0.0 0.00 0.00 0.00 65 1012.5
20260507095704 66 315 3.0 0.0 0.00 0.00 0.00 61 1012.2
20260507094704 67 270 2.0 0.0 0.00 0.00 0.00 59 1012.1
20260507094204 67 315 4.0 0.0 0.00 0.00 0.00 58 1012.2
20260507093204 67 270 2.0 0.0 0.00 0.00 0.00 60 1011.9
20260507092703 67 315 1.0 0.0 0.00 0.00 0.00 60 1011.9
20260507091704 68 225 2.0 0.0 0.00 0.00 0.00 58 1011.9
20260507091204 68 135 2.0 0.0 0.00 0.00 0.00 55 1011.7
20260507090703 68 135 2.0 0.0 0.00 0.00 0.00 56 1011.7
20260507090204 68 135 2.0 0.0 0.00 0.00 0.00 55 1011.7
20260507085704 67 135 2.0 0.0 0.00 0.00 0.00 55 1011.6
20260507085204 67 45 2.0 0.0 0.00 0.00 0.00 55 1011.6
20260507084204 67 90 1.0 0.0 0.00 0.00 0.00 54 1011.5
20260507083704 67 45 4.0 0.0 0.00 0.00 0.00 53 1011.4
20260507083204 68 45 3.0 0.0 0.00 0.00 0.00 52 1011.5
20260507082204 70 0 1.0 0.0 0.00 0.00 0.00 53 1011.4
20260507081704 69 135 2.0 0.0 0.00 0.00 0.00 52 1011.4
20260507081204 69 135 2.0 0.0 0.00 0.00 0.00 53 1011.2
20260507080704 68 45 1.0 0.0 0.00 0.00 0.00 53 1011.3
20260507080204 67 90 2.0 0.0 0.00 0.00 0.00 52 1011.4
20260507075704 67 0 1.0 0.0 0.00 0.00 0.00 51 1011.0
20260507075204 67 45 2.0 0.0 0.00 0.00 0.00 51 1011.2
20260507074704 68 45 4.0 0.0 0.00 0.00 0.00 50 1011.2
20260507074204 69 90 0.0 0.0 0.00 0.00 0.00 52 1011.1
20260507073704 69 45 3.0 0.0 0.00 0.00 0.00 52 1011.0
20260507072703 68 135 2.0 0.0 0.00 0.00 0.00 53 1010.9
20260507072204 68 45 2.0 0.0 0.00 0.00 0.00 51 1011.1
20260507071704 68 45 1.0 0.0 0.00 0.00 0.00 50 1011.0
20260507071205 68 45 2.0 0.0 0.00 0.00 0.00 51 1011.2
20260507070704 68 45 2.0 0.0 0.00 0.00 0.00 50 1011.1
20260507070204 68 45 3.0 0.0 0.00 0.00 0.00 50 1011.2
20260507065705 68 0 2.0 0.0 0.00 0.00 0.00 49 1011.2
20260507065203 69 135 2.0 0.0 0.00 0.00 0.00 50 1011.2
20260507064704 69 45 2.0 0.0 0.00 0.00 0.00 50 1011.2
20260507064204 69 45 2.0 0.0 0.00 0.00 0.00 49 1011.1
20260507063204 71 180 2.0 0.0 0.00 0.00 0.00 46 1011.2
20260507062704 70 45 2.0 0.0 0.00 0.00 0.00 47 1011.3
20260507062205 69 45 2.0 0.0 0.00 0.00 0.00 46 1011.3
20260507061704 69 45 2.0 0.0 0.00 0.00 0.00 43 1011.1
20260507055706 72 90 1.0 0.0 0.00 0.00 0.00 46 1011.0
20260507055204 71 158 1.0 0.0 0.00 0.00 0.00 46 1011.1
20260507054704 71 135 2.0 0.0 0.00 0.00 0.00 45 1011.1
20260507054204 71 135 0.0 0.0 0.00 0.00 0.00 47 1011.0
20260507053704 69 225 0.0 0.0 0.00 0.00 0.00 51 1011.0
20260507053204 68 90 1.0 0.0 0.00 0.00 0.00 52 1011.1
20260507052703 67 90 1.0 0.0 0.00 0.00 0.00 52 1011.0
20260507052205 67 45 2.0 0.0 0.00 0.00 0.00 53 1011.0
20260507051704 67 135 0.0 0.0 0.00 0.00 0.00 53 1011.1
20260507051204 66 135 0.0 0.0 0.00 0.00 0.00 54 1011.1
20260507050704 65 135 0.0 0.0 0.00 0.00 0.00 55 1010.9
20260507050204 64 180 1.0 0.0 0.00 0.00 0.00 58 1011.0
20260507045704 61 180 1.0 0.0 0.00 0.00 0.00 64 1011.0
20260507045203 61 180 2.0 0.0 0.00 0.00 0.00 65 1011.1
20260507044704 59 180 0.0 0.0 0.00 0.00 0.00 70 1010.9
20260507044204 57 180 0.0 0.0 0.00 0.00 0.00 70 1010.8
20260507043704 56 225 0.0 0.0 0.00 0.00 0.00 71 1010.7
20260507043204 55 225 0.0 0.0 0.00 0.00 0.00 70 1010.7
20260507042704 54 225 0.0 0.0 0.00 0.00 0.00 72 1010.7
20260507042205 54 225 0.0 0.0 0.00 0.00 0.00 72 1010.6
20260507041704 54 225 0.0 0.0 0.00 0.00 0.00 73 1010.6
20260507041204 54 225 1.0 0.0 0.00 0.00 0.00 73 1010.4
20260507040704 54 225 1.0 0.0 0.00 0.00 0.00 73 1010.6
20260507040204 54 225 1.0 0.0 0.00 0.00 0.00 75 1010.4
20260507035704 54 225 1.0 0.0 0.00 0.00 0.00 75 1010.4
20260507035204 53 225 1.0 0.0 0.00 0.00 0.00 75 1010.3
20260507034704 52 225 2.0 0.0 0.00 0.00 0.00 75 1010.6
20260507034204 52 225 1.0 0.0 0.00 0.00 0.00 75 1010.3
20260507033704 52 225 1.0 0.0 0.00 0.00 0.00 75 1010.2
20260507032704 51 180 0.0 0.0 0.00 0.00 0.00 75 1010.3
20260507032203 51 180 2.0 0.0 0.00 0.00 0.00 74 1010.2
20260507031704 51 270 1.0 0.0 0.00 0.00 0.00 73 1010.2
20260507031204 51 270 1.0 0.0 0.00 0.00 0.00 72 1010.1
20260507030704 52 225 1.0 0.0 0.00 0.00 0.00 72 1010.0
20260507030204 52 225 1.0 0.0 0.00 0.00 0.00 72 1010.1
20260507025704 53 225 1.0 0.0 0.00 0.00 0.00 72 1010.1
20260507025204 53 225 1.0 0.0 0.00 0.00 0.00 72 1009.9
20260507024704 52 225 2.0 0.0 0.00 0.00 0.00 73 1010.0
20260507024204 51 180 2.0 0.0 0.00 0.00 0.00 73 1010.2
20260507023704 51 180 1.0 0.0 0.00 0.00 0.00 73 1010.0
20260507023204 51 225 1.0 0.0 0.00 0.00 0.00 73 1010.0
20260507022704 51 270 2.0 0.0 0.00 0.00 0.00 72 1010.0
20260507022204 51 270 2.0 0.0 0.00 0.00 0.00 72 1009.9
20260507021704 52 225 1.0 0.0 0.00 0.00 0.00 72 1009.9
20260507021204 52 225 2.0 0.0 0.00 0.00 0.00 72 1009.9
20260507020704 52 270 0.0 0.0 0.00 0.00 0.00 72 1009.7
20260507020204 52 270 0.0 0.0 0.00 0.00 0.00 72 1009.8
20260507015704 52 225 1.0 0.0 0.00 0.00 0.00 72 1009.8
20260507015204 51 225 0.0 0.0 0.00 0.00 0.00 73 1009.9
20260507013704 51 270 1.0 0.0 0.00 0.00 0.00 71 1009.7
20260507013204 51 270 1.0 0.0 0.00 0.00 0.00 71 1009.8
20260507011704 51 225 2.0 0.0 0.00 0.00 0.00 70 1009.6
20260507011204 52 270 2.0 0.0 0.00 0.00 0.00 70 1009.6
20260507010704 52 180 1.0 0.0 0.00 0.00 0.00 70 1009.7
20260507010203 52 225 2.0 0.0 0.00 0.00 0.00 70 1009.5
20260507005704 52 270 2.0 0.0 0.00 0.00 0.00 70 1009.5
20260507005204 52 270 0.0 0.0 0.00 0.00 0.00 70 1009.6
20260507004704 51 270 0.0 0.0 0.00 0.00 0.00 70 1009.6
20260507004203 52 270 0.0 0.0 0.00 0.00 0.00 69 1009.6
20260507003704 52 225 0.0 0.0 0.00 0.00 0.00 67 1009.8
20260507002704 53 225 0.0 0.0 0.00 0.00 0.00 65 1009.6